Dewpoint
67 67 67 67 66 66 66 65 64 66 69 68 68 67 66 64 62 63 66 65 68 68 68 67 67 67 69 69 68 67 66 66 65
65 64 64 64 63 63 63 62 61 66 68 67 65 63 61 59 60 62 65 66 67 68 68 68 67 67 67 68 68 67 65 65 65
63 62 61 61 61 61 61 60 59 66 64 62 61 61 61 60 61 61 63 67 66 66 67 67 67 67 66 66 67 67 66 65 65
59 58 58 57 57 56 57 56 56 57 58 59 61 61 61 61 63 64 63 67 67 67 67 67 67 67 67 66 66 66 65 65 64
54 53 53 53 52 51 51 51 53 53 54 55 58 58 58 57 59 64 65 67 67 67 67 67 67 67 67 67 66 66 65 65 65
40 47 48 48 47 46 46 45 44 47 52 53 55 54 51 53 56 60 65 65 66 66 66 66 66 66 67 67 67 66 66 65 64
34 39 41 41 41 41 40 38 36 32 32 43 50 47 47 48 51 57 61 64 65 65 65 65 65 65 66 66 67 67 67 66 66
25 25 24 21 27 17 19 17 14 14 30 39 44 43 42 41 45 52 57 61 62 62 63 65 64 65 65 65 65 66 66 66 66
21 22 23 21 19 17 18 16 15 19 22 31 37 39 36 34 38 45 51 55 59 61 63 64 63 63 63 63 63 64 65 64 65
22 21 22 22 21 20 19 18 18 18 22 24 29 28 23 22 26 34 46 48 52 55 59 62 61 60 60 60 60 61 61 61 62
22 22 23 22 22 22 20 20 20 20 21 20 21 23 20 19 20 22 32 43 46 49 53 56 58 58 58 57 57 58 58 59 60
24 23 23 23 23 23 20 20 21 22 22 20 19 18 16 16 18 20 20 24 39 43 46 49 51 53 53 53 53 54 55 55 57
24 23 23 23 24 23 21 20 20 21 21 22 20 19 16 15 16 19 20 20 19 31 39 43 45 48 49 50 50 50 50 51 52
23 23 24 24 23 23 20 22 21 21 21 22 23 22 19 16 15 16 17 18 17 18 30 35 37 43 44 45 46 47 47 47 48
21 22 22 23 22 22 22 20 22 22 21 17 18 21 23 21 19 16 16 17 15 14 17 21 25 33 36 39 43 43 44 44 46
21 21 20 20 19 19 18 22 20 21 21 21 22 23 18 19 18 18 19 18 17 14 14 18 20 21 31 34 38 41 42 43 43
20 20 20 18 17 16 17 17 19 20 22 18 18 17 20 15 17 19 15 16 18 18 14 13 16 19 24 26 31 36 39 41 42
20 19 19 18 19 17 17 17 17 16 20 20 16 10 8 15 17 17 15 14 17 17 17 15 15 17 19 25 26 31 34 37 40
19 19 18 18 20 17 16 16 16 18 16 18 18 20 17 11 5 15 16 15 15 15 17 16 15 16 20 22 24 27 30 34 37
20 19 19 18 19 17 16 15 16 17 18 18 17 17 18 18 17 14 16 16 16 16 16 16 16 16 18 20 22 25 28 32 34
Lifted_Index
-0 0 0 1 1 1 1 1 1 -1 -2 -1 -0 0 1 1 0 -0 -1 -1 -1 -1 -1 -1 -1 -1 -1 -1 -1 -0 0 1 1
1 1 1 1 2 2 2 1 1 -0 -1 -1 -0 1 1 1 0 -0 -1 -1 -1 -1 -1 -1 -1 -1 -1 -1 -1 -0 0 1 1
3 2 2 2 2 2 2 2 1 0 -0 -0 0 1 1 1 1 0 -0 -1 -1 -1 -1 -1 -1 -1 -1 -1 -1 -0 0 1 1
3 3 2 2 2 2 2 2 1 1 0 0 1 1 1 1 1 1 -0 -1 -1 -1 -1 -1 -1 -1 -1 -0 -0 -0 0 1 1
3 3 3 2 2 2 2 2 2 1 1 1 1 1 1 1 1 1 0 -0 -0 -0 -1 -1 -1 -1 -1 -0 -0 -0 0 0 1
2 2 3 3 3 3 3 3 2 2 2 2 2 2 2 2 1 1 1 1 0 0 0 0 0 0 0 -0 -0 -0 -0 0 0
2 2 2 3 3 3 3 4 3 3 3 3 3 3 2 2 2 2 2 2 1 1 1 1 1 1 1 1 0 0 0 0 0
2 2 2 3 3 3 3 4 4 4 3 3 3 4 4 3 3 3 3 3 3 3 2 2 2 2 2 2 2 1 1 1 1
3 3 3 3 4 4 4 4 5 5 5 5 5 5 6 6 6 6 6 5 5 4 3 3 3 4 4 4 3 3 3 2 2
5 5 5 5 6 6 6 6 7 7 8 8 8 9 10 10 11 11 10 10 9 7 6 6 6 6 6 5 5 5 4 4 4
8 8 8 9 10 11 11 11 11 12 12 12 13 14 15 15 16 16 16 15 14 13 11 9 9 8 8 7 7 7 6 6 5
13 13 13 14 15 15 15 15 16 16 16 16 17 18 18 19 19 19 19 19 19 17 16 14 12 12 11 11 11 10 9 8 7
16 16 17 18 18 18 18 18 18 18 18 18 18 19 20 20 21 21 21 21 21 21 20 18 17 15 15 14 14 13 12 11 10
18 18 18 19 19 18 18 18 18 18 18 18 18 19 20 20 21 21 21 22 22 22 22 22 21 19 18 17 17 16 15 14 14
18 18 18 18 18 18 18 18 18 17 18 18 18 19 19 20 21 21 22 22 23 23 23 23 23 22 21 20 19 18 17 17 16
18 18 18 18 18 18 18 18 17 18 18 17 17 18 19 20 20 21 22 22 23 23 23 24 24 24 23 22 21 20 19 18 17
19 18 18 18 18 18 18 18 17 18 18 17 17 16 17 19 20 21 21 22 22 23 23 24 24 24 24 24 23 22 20 19 18
19 19 19 19 18 18 18 18 18 18 18 18 17 17 16 17 19 20 21 22 22 23 23 24 24 24 25 25 24 23 22 20 20
20 20 19 19 19 19 19 18 18 18 18 18 18 18 17 17 17 18 20 21 22 23 23 24 25 25 25 25 25 24 23 22 21
20 20 20 20 19 19 19 19 19 18 18 18 19 19 19 18 17 17 18 20 22 23 23 24 25 25 25 25 25 24 24 22 22